Regional Weather Roundup
Issued by NWS

Home | Current Version | Previous Version | Graphics & Text | Print | Product List | Glossary On
Versions: 1 2 3 4 5 6 7 8 9 10 11 12 13 14 15 16 17 18 19 20 21 22 23 24 25 26 27 28 29 30 31 32 33 34 35 36 37 38 39 40 41 42 43 44 45 46 47 48 49 50
000
ASUS43 KDMX 290703
RWRIA

WEATHER ROUNDUP FOR IOWA
NATIONAL WEATHER SERVICE DES MOINES IA
200 AM CDT MON AUG 29 2016

NOTE: "FAIR" INDICATES FEW OR NO CLOUDS BELOW 12,000 FEET WITH NO
SIGNIFICANT WEATHER AND/OR OBSTRUCTIONS TO VISIBILITY.

* - THESE STATIONS ARE NOT NWS STATIONS...THUS NOT UNDER NWS
QUALITY CONTROL.  THEY ALSO DO NOT REPORT WEATHER SUCH
AS PRECIPITATION OR FOG.

IAZ001>003-012>014-020>022-031>034-043>046-290800-
   NORTHWEST IOWA

CITY           SKY/WX    TMP DP  RH WIND       PRES   REMARKS
CARROLL *      PTCLDY    66  66 100 CALM      30.16S
CHEROKEE *     CLEAR     65  65  99 S6        30.16R
DENISON *      CLOUDY    66  64  94 SE7       30.14S
LE MARS *      CLEAR     68  64  88 S7        30.14S
ORANGE CITY *  CLEAR     66  63  88 SE6       30.15R
SHELDON *      CLEAR     64  63  94 S5        30.14R
SIOUX CITY     CLOUDY    68  65  90 SE8       30.13S
SPENCER        CLEAR     65  63  93 S7        30.16R
STORM LAKE *   CLEAR     66  64  94 S8        30.17S
$$

IAZ055>058-069>071-079>083-090>094-290800-
   SOUTHWEST IOWA

CITY           SKY/WX    TMP DP  RH WIND       PRES   REMARKS
ATLANTIC *     MOCLDY    70  66  88 CALM      30.15F
AUDUBON *      CLOUDY    66  63  88 CALM      30.17F
CLARINDA *       N/A     70  68  94 MISG      30.16F
COUNCIL BLFS * CLOUDY    68  66  94 SE8       30.15F
CRESTON *      CLOUDY    70  68  94 SE5       30.17F
HARLAN  *      MOCLDY    68  66  94 CALM      30.19S
LAMONI         PTCLDY    70  70 100 E3        30.16F
RED OAK *      CLOUDY    70  68  94 E3        30.15F
SHENANDOAH *   CLOUDY    68 -38   1 CALM      30.14F
$$

IAZ047>049-059>061-072>074-084-290800-
   CENTRAL IOWA

CITY           SKY/WX    TMP DP  RH WIND       PRES   REMARKS
AMES           PTCLDY    69  69 100 CALM      30.15S
ANKENY *         N/A    N/A N/A N/A MISG        N/A
BOONE *        CLOUDY    70  68  94 VRB7      30.16R
CHARITON *       N/A     70  70 100 MISG      30.15F
DES MOINES     CLOUDY    73  69  87 S5        30.14F THUNDER
GRINNELL*      CLOUDY    71  68  91 CALM      30.17R
KNOXVILLE *    CLOUDY    72  70  94 S6        30.13F
MARSHALLTOWN   CLOUDY    69  68  96 CALM      30.15F
NEWTON *       CLOUDY    72  72 100 CALM      30.15S
PELLA *        CLOUDY    71  69  92 CALM      30.15F
PERRY *          N/A     67  67  99 CALM      30.16S
$$

IAZ004>006-015-016-023>025-035-036-290800-
   NORTH CENTRAL IOWA

CITY           SKY/WX    TMP DP  RH WIND       PRES   REMARKS
ALGONA *       CLEAR     66  66 100 S6        30.16S
ESTHERVILLE    CLEAR     65  65 100 S8        30.14F
FORT DODGE *   CLEAR     66  63  88 CALM      30.16S
MASON CITY     CLEAR     68  67  96 S6        30.17F FOG
FOREST CITY *    N/A    N/A N/A N/A MISG        N/A
WEBSTER CITY * CLOUDY    64  64 100 CALM      30.14S
IOWA FALLS *     N/A     71  69  94 SE3       30.17S
$$

IAZ007>011-017>019-026>030-037>042-050>054-066-290800-
   NORTHEAST IOWA

CITY           SKY/WX    TMP DP  RH WIND       PRES   REMARKS
CEDAR RAPIDS   CLEAR     67  67 100 E6        30.17F
CHARLES CITY * PTCLDY    68  68 100 CALM      30.17F
CLINTON *      CLOUDY    71  69  93 SE7       30.19F
DECORAH *      PTCLDY    68  68 100 CALM      30.18S
DUBUQUE        CLOUDY    69  67  93 SE7       30.21R
MONTICELLO *   PTCLDY    66  64  94 CALM      30.19S
OELWEIN *      CLEAR     64  64 100 SE6       30.19S
WATERLOO       PTCLDY    66  64  93 NE6       30.16S
$$

IAZ064-065-067-068-078-290800-
   EAST CENTRAL IOWA

CITY           SKY/WX    TMP DP  RH WIND       PRES   REMARKS
DAVENPORT      PTCLDY    71  69  93 SE5       30.20S
IOWA CITY      CLOUDY    70  68  93 SE6       30.19S
MT. PLEASANT * CLOUDY    72  72 100 E6        30.17R
QUAD CITIES    CLOUDY    72  68  87 CALM      30.18F
$$

IAZ062-063-075>077-085>089-095>099-290800-
   SOUTHEAST IOWA

CITY           SKY/WX    TMP DP  RH WIND       PRES   REMARKS
BURLINGTON     CLOUDY    72  70  93 E6        30.16F
FAIRFIELD *    CLOUDY    70  68  94 E5        30.15S
FORT MADISON * CLOUDY    72  70  94 E5        30.16S
KEOKUK *       CLOUDY    72  70  94 CALM      30.14F
OSKALOOSA *      N/A     67  67  97 SE3       30.15S
CENTERVILLE *    N/A     68  68 100 CALM      30.17F FOG
OTTUMWA        PTCLDY    68  67  96 S3        30.15S
WASHINGTON *   CLOUDY    70  70 100 E7        30.18S
$$

ABBREVIATIONS USED IN REMARKS
   TC - TEMPERATURES IN CELSIUS
  WCI - WIND CHILL INDEX
   HX - HEAT INDEX
  VSB - VISIBILITY
$$




USA.gov is the U.S. government's official web portal to all federal, state and local government web resources and services.